Regional Weather Roundup
Issued by NWS Grand Forks, ND

Home | Current Version | Previous Version | Text Only | Print | Product List | Glossary Off
Versions: 1 2 3 4 5 6 7 8 9 10 11 12 13 14 15 16 17 18 19 20 21 22 23 24 25 26 27 28 29 30 31 32 33 34 35 36 37 38 39 40 41 42 43 44 45 46 47 48 49 50

000
ASUS43 KFGF 312110
RWRFGF
PRAIRIE TO PINES  WEATHER ROUNDUP
NATIONAL WEATHER SERVICE EASTERN NORTH DAKOTA/GRAND FORKS ND
400 PM CDT THU JUL 31 2014

 **SATELLITE DATA USED TO AUGMENT SKY COVER AT AUTOMATED STATIONS**
 *****  WEATHER ACROSS EASTERN NORTH DAKOTA  *****

CITY           SKY/WX    TMP DP  RH WIND       PRES   REMARKS
GRAND FORKS    MOSUNNY   83  61  47 W5        30.00F
GRAND FRKS AFB MOSUNNY   82  62  50 VRB6      30.02S
GRAND FRKS NWS   N/A     79 N/A N/A VRB6        N/A
DEVILS LAKE    SUNNY     81  55  41 NW8       30.04S
FARGO          MOSUNNY   84  58  40 NW9       30.01S
WAHPETON ARPT  CLEAR     81  52  36 W6        30.03S
$$

 ***** WEATHER ACROSS CENTRAL AND WESTERN NORTH DAKOTA  *****

CITY           SKY/WX    TMP DP  RH WIND       PRES   REMARKS
BISMARCK       SUNNY     86  48  26 SW7       30.07F
MINOT          SUNNY     81  56  42 NE6       30.07S
JAMESTOWN      MOSUNNY   82  54  37 NW5       30.06S
MINOT AFB      SUNNY     81  57  44 VRB2      30.06F
GARRISON         N/A     80  57  45 CALM      30.08S
WILLISTON      SUNNY     88  52  29 VRB6      30.04F
DICKINSON      SUNNY     86  48  26 VRB3      30.07F
HETTINGER      SUNNY     87  49  26 NW7       30.11R
$$

 *****  OTHER AIRPORT OBSERVATIONS IN OUR AREA  *****

CITY           SKY/WX    TMP DP  RH WIND       PRES   REMARKS
WALHALLA       FAIR      81  63  54 N5          N/A
GRAFTON AIRPOR FAIR      81  59  47 CALM      30.01S
VALLEY CITY AR FAIR      82  55  39 N8        30.05S
CANDO          FAIR      81  57  44 N6        30.06S
CAVALIER APRT  FAIR      82  59  44 N7        30.02S
GWINNER        CLEAR     82  57  42 N6        30.06S
ROLLA            N/A     79  55  44 N7        30.09S
 ***** THE ABOVE OBSERVATIONS ARE NON NWS ARE NOT QUALITY
       CONTROLLED AND MAY MIS-REPORT RAIN FOR SNOW...
$$

  *****  WEATHER ACROSS NORTHERN MINNESOTA  *****

CITY           SKY/WX    TMP DP  RH WIND       PRES   REMARKS
FLAG ISLAND    SUNNY     77  55  47 N7        29.98F
WARROAD        SUNNY     79  61  53 CALM      30.01S
ROSEAU           N/A     81  59  47 CALM      30.01R
HALLOCK        SUNNY     81  61  50 N7        30.00S
THF RVR FALLS  MOSUNNY   79  59  50 NW12      30.02S
BAUDETTE         N/A     78  54  43 VRB6      30.01S
WASKISH        SUNNY     79  59  50 CALM      30.00S
CROOKSTON      SUNNY     81  61  50 NW6       30.02S
$$
  *****  WEATHER ACROSS CENTRAL AND WEST MINNESOTA  *****

CITY           SKY/WX    TMP DP  RH WIND       PRES   REMARKS
FOSSTON        MOSUNNY   81  57  44 NW6       30.03S
BEMIDJI        SUNNY     78  58  50 N9        30.02R
PARK RAPIDS    MOSUNNY   80  57  45 NW12      30.02S
ELBOW LAKE     FAIR      78  58  50 NW5       30.04S
WADENA         SUNNY     79  59  50 W9        30.03S
DETROIT LAKES  SUNNY     81  55  41 NW8       30.05S
MOORHEAD       SUNNY     81  61  50 N7        30.03S
FERGUS FALLS   SUNNY     81  54  39 W3        30.02S
MORRIS MN      SUNNY     82  57  42 NW8       30.03F
STAPLES        MOSUNNY   82  55  39 NW7       30.02S
$$
  *****  WEATHER ELSEWHERE ACROSS MINNESOTA  *****

CITY           SKY/WX    TMP DP  RH WIND       PRES   REMARKS
DULUTH         MOSUNNY   80  53  39 NW10      29.98S
INTRNTL FALLS  SUNNY     77  55  46 NE8       29.98F
ELY            SUNNY     73  50  43 W9        29.98R
CLOQUET        SUNNY     79  52  38 NW12G17   29.98S
WHEATON        SUNNY     79  57  47 N5        30.05F
BRAINERD       SUNNY     81  56  42 NW9       30.01S
HIBBING        SUNNY     79  53  40 N10       29.99S
ALEXANDRIA     SUNNY     79  55  43 NW8       30.06S
SAINT CLOUD    MOSUNNY   84  54  35 W6        30.01F
MINNEAPOLIS    MOSUNNY   83  50  31 NW8       30.01F
$$

  *****  WEATHER ACROSS SOUTH DAKOTA  *****

CITY           SKY/WX    TMP DP  RH WIND       PRES   REMARKS
SIOUX FALLS    MOSUNNY   79  56  45 CALM      30.06F
BROOKINGS      NOT AVBL
WATERTOWN      SUNNY     79  53  40 W7        30.07S
HURON          MOSUNNY   82  52  35 W5        30.04F
SISSETON         N/A     82  55  39 VRB5      30.04S
ABERDEEN       SUNNY     81  54  39 NE9       30.05F
MITCHELL       SUNNY     82  60  47 CALM      30.05F
PIERRE         SUNNY     86  52  30 VRB3      30.04F
MOBRIDGE       SUNNY     85  53  33 VRB3      30.04S
RAPID CITY     SUNNY     85  51  31 CALM      30.13F
$$

  *****  SOME WEATHER IN NEARBY STATES *****

CITY           SKY/WX    TMP DP  RH WIND       PRES   REMARKS
GLASGOW MT     SUNNY     98  37  12 W7        29.97F HX  93
GREAT FALLS MT FAIR      91  35  13 NE8G17    30.09F
CHEYENNE WY    MOSUNNY   74  43  32 E6        30.30F
SCOTTSBLUFF NE SUNNY     86  45  23 S10       30.18F
OMAHA NE       MOSUNNY   84  55  36 SE9       30.04F
DES MOINES IA  MOSUNNY   83  56  39 W8        30.05F
DAVENPORT IA   SUNNY     80  59  48 W8        30.06F
CHICAGO IL     MOSUNNY   83  54  36 W15G23    30.02S
EAU CLAIRE WI  SUNNY     82  56  40 W12       29.99S
LA CROSSE WI   SUNNY     82  55  39 W10       30.00F
$$

  *****  SOME NATIONAL WEATHER *****

CITY           SKY/WX    TMP DP  RH WIND       PRES   REMARKS
LA GUARDIA NY  PTSUNNY   79  62  56 S14       30.08S
RALEIGH NC     CLOUDY    81  64  56 E6        30.12F
ATLANTA GA     PTSUNNY   83  66  56 N14       30.03F
NEW ORLEANS LA PTSUNNY   89  64  43 NE8       29.99F HX  90
OKLAHOMA CITY  CLOUDY    77  65  66 N10G22    30.07F
ALBUQUERQUE NM PTSUNNY   80  57  45 VRB3      30.20F
SALT LAKE CITY FAIR      84  51  31 VRB5      30.14F
LOS ANGELES CA FAIR      74  62  66 W12       29.91F
BOISE ID       FAIR      93  46  19 NW5       30.05F
SEATTLE WA     FAIR      81  55  40 W7        30.09F
$$

*** WEATHER ACROSS MANITOBA...SASKATCHEWAN AND ONTARIO ***
                ***ONTARIO***

CITY           SKY/WX    TMP DP  RH WIND       PRES   REMARKS
GERALDTON      DRIZZLE   59  52  77 NW6       29.92S
THUNDER BAY    MOSUNNY   75  52  43 NW10      29.91S
SIOUX LOOKOUT  PTSUNNY   73  50  43 NE7       29.98S
TORONTO        PTSUNNY   75  54  46 W17       30.00S
BIG TROUT LK   CLOUDY    68  46  45 N9G22     29.95S
PICKLE LAKE    PTSUNNY   68  48  49 N6        29.96F
DRYDEN         SUNNY     73  46  38 NE6       29.99S
KENORA         PTSUNNY   77  50  38 N8        30.01F
$$
                *** MANITOBA***

CITY           SKY/WX    TMP DP  RH WIND       PRES   REMARKS
BRANDON        MOSUNNY   79  63  57 NE9       30.06S
DAUPHIN        SUNNY     81  57  44 SW3       30.04S
ISLAND LAKE    MOSUNNY   73  46  38 N2        30.05F
PILOT MOUND      N/A     79  59  50 NW9         N/A
THE PAS        TSTM      79  54  41 NW15G23   30.00R
THOMPSON       PTSUNNY   81  55  41 SE7       30.03F
WINNIPEG       MOSUNNY   81  59  47 N6        30.02R
LYNN LAKE      CLOUDY    79  54  41 W17G24    29.99S
GILLAM         CLOUDY    73  48  40 N6        30.06F
$$
                ***SASKATCHEWAN***

CITY           SKY/WX    TMP DP  RH WIND       PRES   REMARKS
ESTEVAN        MOSUNNY   81  59  47 SE8       30.07F
KINDERSLEY     PTSUNNY   81  66  61 NE8       30.06S
LLOYDMINSTER   PTSUNNY   81  59  47 E9        30.09S
PRINCE ALBERT  PTSUNNY   82  61  47 SE5       30.05F
REGINA         MOSUNNY   82  61  47 SE8       30.05S
YORKTON        NOT AVBL
N. BATTLEFORD    N/A     81  64  57 SE9       30.08S
LA RONGE       PTSUNNY   84  57  39 SE8       30.05S
SASKATOON      MOSUNNY   82  57  42 E12       30.07S
SWIFT CURRENT  SUNNY     90  50  25 W5        30.01S
$$
NOTE: THESE ARE AUTOMATED STATIONS WITH LIMITED QUALITY CONTROL
      "FAIR" INDICATES FEW OR NO CLOUDS BELOW 12,000 FEET WITH NO
      SIGNIFICANT WEATHER AND/OR OBSTRUCTIONS TO VISIBILITY.
      SKY/WX - SKY CONDITION AND SIGNIFICANT WEATHER.
      TMP - AIR TEMPERATURE.    DP   - DEWPOINT TEMPERATURE.
      RH  - RELATIVE HUMIDITY.  PRES - PRESSURE.
      HX  - HEAT INDEX.         WCI  - WIND CHILL INDEX.
$


USA.gov is the U.S. government's official web portal to all federal, state and local government web resources and services.